FENGYUN 1C DEB, 30764

Orbit data source: Space-Track

FENGYUN 1C DEB, 30764 is space debris in SSO originally from a launch on Mon, 10 May 1999 UTC launched from the Taiyaun Space Center, China (TSC). Fengyun 1C debris stems from the Chinese weather satellite Fengyun-1C, which was intentionally destroyed by a Chinese anti-satellite missile in 2007. This event dramatically increased the amount of space debris, with thousands of trackable fragments posing hazards to satellites and human spaceflight. The Fengyun 1C debris cloud has become a focal point in discussions about space sustainability and the need for international regulations to prevent the creation of new debris.

Loading next visibility...
Identifier
30764, 1999-025AUA
Orbit
SSO
Country
Flag of CNCN / PRC
Related business
Manufacturer
Unknown
Mission
Spacecraft
Bus & Motor
Unknown
Mass
Unknown
Launch date (UTC)
1999-05-10 (27 years ago)
Launch vehicle
Unknown
Launch site
Taiyaun Space Center, China (TSC)
Object type
Payload
Rocket body
Debris
Shape & HBR
Unknown shape, 0.1 m
Radar Cross Section
Small (<0.1 m²)

Expand to show TLE details & history
Last TLE update: 10 hours ago

TLE from 10 hours ago
0 FENGYUN 1C DEB
1 30764U 99025AUA 26071.46860447  .00028985  00000-0  73518-3 0  9999
2 30764  98.7858  63.8674 0061598 221.0031 138.6571 15.37684770 25971
Epoch: 2026-03-12T11:14Z
TLE epoch observation values (Epoch: 2026-03-12T11:14:47.426Z)
Latitude
0.00007°
Longitude
85.05173°
Altitude
487.739 km
Speed
7.604 km/s
True Right ascension
04h 15m 28s
True Declination
0° 00' 00"
Sunlit
Object was in daylight at epoch
Visualization orbit readout
Latitude
Unknown
Longitude
Unknown
Altitude
Unknown
Speed
Unknown
Apparent Right ascension
Unknown
Apparent Declination
Unknown
Sunlit
N/A
Visualization observer readout
Local Sidereal Time
02:06:08
Azimuth
Unknown
Elevation
Unknown
Doppler factor
Unknown
Orbital elements
Apogee altitude
492.024 km
Perigee altitude
407.905 km
Semi-major axis
6,828.102 km
Eccentricity
0.00616
Inclination
98.7858°
RAAN
63.8674°
Arg. of periapsis
221.0031°
True anomaly
139.12068°
Mean anomaly
138.6571°
Eccentric anomaly
138.88916°
Mean motion
3.84674 °/min
Orbital period
93.59 mins
BSTAR
0.00073518
Loading maneuver chart data...
Computing Atmospheric mass density...

Documentation

Showing up to 5 results
|